Location: ?
(35.6144°N, 139.6873°E)
Time: 14:14:24
(UTC+00:00)

Meteor 1-14 Rocket - Pass Details

Date: 23 May 2024
Orbit: 834 x 917 km, 81.3° (Epoch: 15 June)

Event Time Altitude Azimuth Distance (km) Brightness Sun altitude
Rises 11:33:19 0° 355° (N) 3,508 8.2 -18.7°
Reaches altitude 10° 11:35:47 10° 358° (N) 2,576 7.4 -19.0°
Maximum altitude 11:41:38 65° 80° (E) 995 4.4 -19.9°
Enters shadow 11:44:01 37° 149° (SSE) 1,392 4.8 -20.2°
